When you browse on this site, cookies collect data to enhance your experience and personalize the content and advertising you see.
Visit our Privacy Policy to learn more. By continuing to use the site, you agree to this use of cookies and data.
  • In Romania
  • List of Countries
  • For 7 days
  • Water Temperature
  • Weather Map
  • Weather Widgets
  • user-avatar
    Login

    Hourly Weather Francistown

    Today, 14 November, Thursday

    Time Temperature Precipitation Wind Pressure Humidity
    00:00 +25°C° 0 mm 1 mps 675 mmHg 71%
    01:00 +24°C° 0 mm 1 mps 675 mmHg 73%
    02:00 +24°C° 0 mm 1 mps 675 mmHg 76%
    03:00 +24°C° 0 mm 1 mps 675 mmHg 75%
    04:00 +24°C° 0 mm 1 mps 675 mmHg 74%
    05:00 +22°C° 0 mm 0 mps 675 mmHg 74%
    06:00 +25°C° 0 mm 1 mps 675 mmHg 66%
    07:00 +26°C° 0 mm 2 mps 676 mmHg 59%
    08:00 +28°C° 0 mm 2 mps 676 mmHg 52%
    09:00 +29°C° 0 mm 2 mps 676 mmHg 47%
    10:00 +31°C° 0 mm 2 mps 676 mmHg 42%
    11:00 +34°C° 0 mm 2 mps 676 mmHg 36%
    12:00 +34°C° 0 mm 3 mps 676 mmHg 35%
    13:00 +35°C° 0 mm 3 mps 675 mmHg 34%
    14:00 +35°C° 0 mm 4 mps 674 mmHg 34%
    15:00 +35°C° 0 mm 4 mps 674 mmHg 33%
    16:00 +35°C° 0 mm 4 mps 674 mmHg 33%
    17:00 +35°C° 0 mm 4 mps 673 mmHg 32%
    18:00 +34°C° 0 mm 3 mps 673 mmHg 35%
    19:00 +31°C° 0 mm 3 mps 674 mmHg 37%
    20:00 +30°C° 0 mm 3 mps 674 mmHg 40%
    21:00 +29°C° 0 mm 3 mps 674 mmHg 41%
    22:00 +29°C° 0 mm 3 mps 673 mmHg 43%
    23:00 +28°C° 0 mm 2 mps 673 mmHg 45%

    Tomorrow, 15 November, Friday

    Time Temperature Precipitation Wind Pressure Humidity
    00:00 +28°C° 0 mm 3 mps 673 mmHg 46%
    01:00 +27°C° 0 mm 3 mps 673 mmHg 48%
    02:00 +27°C° 0 mm 3 mps 672 mmHg 49%
    03:00 +26°C° 0 mm 2 mps 672 mmHg 51%
    04:00 +26°C° 0 mm 2 mps 672 mmHg 52%
    05:00 +25°C° 0 mm 2 mps 672 mmHg 54%
    06:00 +27°C° 0 mm 2 mps 673 mmHg 49%
    07:00 +29°C° 0 mm 3 mps 674 mmHg 44%
    08:00 +31°C° 0 mm 3 mps 675 mmHg 39%
    09:00 +33°C° 0 mm 3 mps 675 mmHg 31%
    10:00 +35°C° 0 mm 4 mps 674 mmHg 23%
    11:00 +37°C° 0 mm 4 mps 674 mmHg 15%
    12:00 +39°C° 0 mm 5 mps 674 mmHg 15%
    13:00 +40°C° 0 mm 5 mps 673 mmHg 14%
    14:00 +41°C° 0 mm 6 mps 673 mmHg 14%
    15:00 +40°C° 0 mm 6 mps 672 mmHg 13%
    16:00 +40°C° 0 mm 6 mps 671 mmHg 12%
    17:00 +39°C° 0 mm 6 mps 671 mmHg 12%
    18:00 +36°C° 0 mm 5 mps 671 mmHg 13%
    19:00 +34°C° 0 mm 4 mps 672 mmHg 14%
    20:00 +31°C° 0 mm 3 mps 672 mmHg 14%
    21:00 +30°C° 0 mm 3 mps 672 mmHg 26%
    22:00 +28°C° 0 mm 3 mps 672 mmHg 38%
    23:00 +27°C° 0 mm 3 mps 672 mmHg 50%

    Day after tomorrow, 16 November, Saturday

    Time Temperature Precipitation Wind Pressure Humidity
    00:00 +27°C° 0 mm 3 mps 672 mmHg 54%
    01:00 +26°C° 0 mm 3 mps 672 mmHg 58%
    02:00 +25°C° 0 mm 3 mps 671 mmHg 62%
    03:00 +25°C° 0 mm 4 mps 671 mmHg 67%
    04:00 +23°C° 0 mm 4 mps 671 mmHg 73%
    05:00 +23°C° 0 mm 4 mps 671 mmHg 78%
    06:00 +25°C° 0 mm 5 mps 672 mmHg 74%
    07:00 +26°C° 0 mm 5 mps 673 mmHg 70%
    08:00 +27°C° 0 mm 5 mps 673 mmHg 66%
    09:00 +29°C° 0 mm 5 mps 673 mmHg 55%
    10:00 +32°C° 0 mm 4 mps 674 mmHg 43%
    11:00 +35°C° 0 mm 3 mps 674 mmHg 32%
    12:00 +36°C° 0 mm 3 mps 673 mmHg 27%
    13:00 +37°C° 0 mm 3 mps 673 mmHg 22%
    14:00 +38°C° 0 mm 3 mps 672 mmHg 17%
    15:00 +38°C° 0 mm 3 mps 672 mmHg 17%
    16:00 +38°C° 0 mm 4 mps 671 mmHg 17%
    17:00 +37°C° 0 mm 4 mps 671 mmHg 17%
    18:00 +35°C° 0 mm 5 mps 671 mmHg 25%
    19:00 +33°C° 0 mm 6 mps 671 mmHg 34%
    20:00 +29°C° 0 mm 7 mps 671 mmHg 42%
    21:00 +29°C° 0 mm 6 mps 672 mmHg 43%
    22:00 +28°C° 0 mm 5 mps 672 mmHg 43%
    23:00 +28°C° 0 mm 5 mps 672 mmHg 43%

    17 November, Sunday

    Time Temperature Precipitation Wind Pressure Humidity
    00:00 +27°C° 0 mm 5 mps 672 mmHg 45%
    01:00 +27°C° 0 mm 5 mps 671 mmHg 46%
    02:00 +26°C° 0 mm 5 mps 671 mmHg 48%
    03:00 +26°C° 0 mm 4 mps 671 mmHg 50%
    04:00 +25°C° 0 mm 4 mps 671 mmHg 52%
    05:00 +25°C° 0 mm 3 mps 671 mmHg 55%
    06:00 +26°C° 0 mm 4 mps 672 mmHg 49%
    07:00 +28°C° 0 mm 4 mps 673 mmHg 44%
    08:00 +30°C° 0 mm 4 mps 673 mmHg 38%
    09:00 +33°C° 0 mm 4 mps 673 mmHg 33%
    10:00 +35°C° 0 mm 3 mps 673 mmHg 27%
    11:00 +37°C° 0 mm 2 mps 674 mmHg 22%
    12:00 +39°C° 0 mm 2 mps 673 mmHg 19%
    13:00 +40°C° 0 mm 1 mps 673 mmHg 16%
    14:00 +41°C° 0 mm 1 mps 672 mmHg 13%
    15:00 +40°C° 0 mm 1 mps 672 mmHg 13%
    16:00 +39°C° 0 mm 1 mps 671 mmHg 14%
    17:00 +39°C° 0 mm 2 mps 671 mmHg 14%
    18:00 +37°C° 0 mm 2 mps 671 mmHg 16%
    19:00 +36°C° 0 mm 2 mps 671 mmHg 18%
    20:00 +34°C° 0 mm 2 mps 672 mmHg 19%
    21:00 +32°C° 0 mm 2 mps 672 mmHg 22%
    22:00 +31°C° 0 mm 3 mps 672 mmHg 25%
    23:00 +30°C° 0 mm 3 mps 672 mmHg 27%

    18 November, Monday

    Time Temperature Precipitation Wind Pressure Humidity
    00:00 +30°C° 0 mm 4 mps 672 mmHg 29%
    01:00 +29°C° 0 mm 4 mps 672 mmHg 31%
    02:00 +28°C° 0 mm 4 mps 671 mmHg 33%
    03:00 +28°C° 0 mm 3 mps 671 mmHg 37%
    04:00 +27°C° 0 mm 3 mps 671 mmHg 40%
    05:00 +27°C° 0 mm 2 mps 671 mmHg 44%
    06:00 +29°C° 0 mm 3 mps 672 mmHg 39%
    07:00 +31°C° 0 mm 3 mps 673 mmHg 34%
    08:00 +34°C° 0 mm 4 mps 673 mmHg 29%
    09:00 +36°C° 0 mm 4 mps 674 mmHg 26%
    10:00 +38°C° 0 mm 4 mps 674 mmHg 22%
    11:00 +41°C° 0 mm 4 mps 674 mmHg 19%
    12:00 +39°C° 0 mm 5 mps 673 mmHg 21%
    13:00 +38°C° 0 mm 6 mps 672 mmHg 24%
    14:00 +35°C° 0 mm 7 mps 671 mmHg 26%
    15:00 +36°C° 0 mm 6 mps 672 mmHg 25%
    16:00 +36°C° 0 mm 5 mps 672 mmHg 23%
    17:00 +37°C° 0 mm 4 mps 672 mmHg 22%
    18:00 +35°C° 0.2 mm 4 mps 672 mmHg 26%
    19:00 +34°C° 0.2 mm 3 mps 672 mmHg 31%
    20:00 +31°C° 0.2 mm 2 mps 672 mmHg 35%
    21:00 +31°C° 0.1 mm 3 mps 673 mmHg 36%
    22:00 +32°C° 0.1 mm 4 mps 674 mmHg 37%
    23:00 +32°C° 0.1 mm 5 mps 674 mmHg 37%

    19 November, Tuesday

    Time Temperature Precipitation Wind Pressure Humidity
    00:00 +30°C° 0.1 mm 5 mps 674 mmHg 43%
    01:00 +29°C° 0.1 mm 5 mps 674 mmHg 48%
    02:00 +28°C° 0.1 mm 5 mps 673 mmHg 54%
    03:00 +27°C° 0.1 mm 4 mps 674 mmHg 57%
    04:00 +27°C° 0.1 mm 3 mps 674 mmHg 60%
    05:00 +26°C° 0.1 mm 2 mps 674 mmHg 64%
    06:00 +27°C° 0 mm 2 mps 674 mmHg 59%
    07:00 +28°C° 0 mm 2 mps 675 mmHg 55%
    08:00 +29°C° 0 mm 3 mps 675 mmHg 51%
    09:00 +31°C° 0 mm 3 mps 675 mmHg 45%
    10:00 +34°C° 0 mm 4 mps 675 mmHg 39%
    11:00 +36°C° 0 mm 5 mps 675 mmHg 33%
    12:00 +36°C° 0 mm 5 mps 674 mmHg 34%
    13:00 +35°C° 0 mm 6 mps 673 mmHg 35%
    14:00 +35°C° 0 mm 7 mps 673 mmHg 35%
    15:00 +35°C° 0 mm 6 mps 673 mmHg 35%
    16:00 +35°C° 0 mm 5 mps 672 mmHg 34%
    17:00 +35°C° 0 mm 4 mps 672 mmHg 33%
    18:00 +33°C° 0.1 mm 4 mps 673 mmHg 40%
    19:00 +32°C° 0.1 mm 4 mps 673 mmHg 47%
    20:00 +29°C° 0.1 mm 4 mps 673 mmHg 53%
    21:00 +28°C° 0.2 mm 4 mps 673 mmHg 56%
    22:00 +28°C° 0.2 mm 3 mps 673 mmHg 59%
    23:00 +27°C° 0.2 mm 3 mps 674 mmHg 61%
    Show more